Theta_e
323 317 312 305 295 292 289 295 297 299 300 301 304 305 304 305 306 299 311 317 321 322 324 324 327 327 327 327 326 326 326 326 327 328 329 331 336 338 341 342 343 343 344 344 345 345 344 342 341
317 317 306 300 289 286 289 293 295 299 304 304 306 304 302 303 309 309 308 315 318 321 319 319 325 324 324 324 324 324 323 324 324 325 326 327 329 331 335 339 340 341 342 343 344 344 344 344 344
318 315 301 294 289 286 288 294 300 303 306 305 303 306 304 305 308 308 310 314 313 314 316 318 321 321 322 321 321 320 320 320 321 322 323 323 325 327 329 332 335 340 341 342 344 344 344 345 344
309 302 297 290 289 293 292 295 301 301 302 307 304 300 306 310 310 310 313 313 311 311 314 318 320 319 317 317 316 317 317 317 318 319 320 321 322 323 325 327 329 334 338 341 343 343 344 344 344
306 299 290 287 289 293 294 299 300 300 299 302 304 300 303 308 310 312 312 312 309 308 311 314 317 315 313 313 313 313 314 314 316 317 318 319 320 321 322 323 325 327 331 337 339 340 342 342 342
298 297 288 286 289 295 296 298 299 297 300 300 301 300 302 309 308 309 310 309 310 308 310 310 315 314 312 312 311 311 312 312 314 316 318 318 319 319 320 321 322 323 325 329 335 338 339 340 341
299 294 288 289 291 294 297 300 296 296 297 299 303 299 301 304 307 309 308 307 307 308 307 306 307 311 314 314 312 312 312 312 314 316 316 316 317 317 317 318 319 320 321 323 326 331 336 338 338
300 296 291 290 291 293 296 298 299 298 297 303 302 297 296 304 308 307 307 306 306 305 305 302 303 305 304 304 314 315 314 313 315 315 316 316 316 316 316 316 317 319 319 320 321 325 332 335 336
301 291 288 291 292 293 297 295 299 301 298 299 303 301 303 307 307 305 303 303 304 305 303 302 302 302 303 303 305 311 313 315 317 316 316 314 311 310 311 314 315 316 317 318 320 325 330 330 329
295 289 291 294 293 293 297 296 297 297 297 298 300 302 305 305 304 303 302 302 302 303 303 302 301 301 301 304 303 304 305 305 306 307 308 310 310 311 313 312 315 316 317 317 317 318 323 326 328
296 292 296 296 298 298 297 297 298 295 295 298 297 300 302 301 302 302 302 302 303 303 303 302 302 300 300 301 302 302 303 303 305 306 307 312 310 310 311 310 311 311 311 310 312 311 314 325 328
293 296 297 298 300 299 297 298 297 297 298 302 301 302 302 301 301 301 301 302 302 301 301 302 301 300 299 300 300 301 302 305 304 306 309 310 310 309 309 309 310 308 310 311 313 313 317 321 321
294 295 298 299 299 298 300 297 296 297 300 302 302 302 301 301 301 302 302 303 303 300 301 300 299 299 301 300 300 302 303 304 305 306 310 311 309 308 309 308 310 309 310 310 317 319 321 319 320
297 298 299 300 299 299 297 296 297 298 299 299 300 300 300 301 301 301 301 302 301 302 300 299 299 299 301 300 302 303 304 305 307 309 309 310 310 309 309 309 310 309 309 308 317 320 318 319 319
299 294 296 297 298 297 297 294 294 300 298 298 298 297 299 300 300 300 301 301 302 302 299 299 299 300 301 303 304 304 305 309 309 309 310 311 310 309 309 309 308 309 310 312 319 319 318 317 318
293 293 289 296 297 297 294 291 298 299 297 297 297 298 297 299 301 300 301 302 302 300 299 299 302 301 303 303 304 305 307 309 309 309 309 310 310 309 308 308 308 309 310 315 318 317 315 314 315
291 286 289 293 297 297 293 291 298 298 297 296 296 296 297 298 299 300 302 301 300 299 298 298 300 302 303 304 304 304 304 305 308 310 310 310 309 309 308 308 308 309 312 313 316 315 313 311 312
287 287 290 291 294 295 292 292 297 299 299 299 298 296 297 298 299 301 300 300 298 297 297 298 301 302 303 303 302 302 303 303 308 309 308 307 307 308 308 308 308 308 310 313 314 312 312 311 308
292 290 288 292 295 292 291 292 295 298 297 296 296 296 297 297 300 300 300 298 296 296 297 299 302 302 301 300 299 299 298 301 306 307 308 309 306 306 308 308 307 308 309 312 313 311 309 306 307
292 288 287 292 292 291 291 292 296 297 297 296 296 294 296 297 298 299 296 296 296 295 297 301 302 302 302 301 301 302 300 303 306 307 305 306 305 308 306 306 306 307 311 314 310 309 307 307 308
289 287 286 289 292 292 289 287 293 299 295 294 295 296 297 296 297 296 296 294 294 294 298 301 301 302 302 302 301 302 303 308 308 306 305 305 305 306 306 306 309 310 312 312 311 310 308 306 307
287 292 292 292 287 281 288 279 283 292 295 295 295 295 295 296 297 296 295 294 293 294 299 301 302 302 302 301 300 301 304 305 308 306 306 305 306 308 307 308 313 316 315 312 311 311 309 309 305
289 292 291 290 286 284 282 278 285 293 293 294 294 295 295 295 296 295 294 295 295 299 299 299 301 301 301 301 301 304 305 306 305 306 304 305 306 310 310 310 315 316 314 313 312 311 311 310 309
293 290 289 287 284 275 280 282 282 287 293 290 293 295 296 295 295 295 295 295 296 298 298 299 300 300 300 300 300 301 301 304 303 304 305 306 308 307 312 315 316 316 315 312 312 312 312 311 311
290 285 276 275 273 277 283 282 285 291 294 292 294 294 294 295 294 294 292 293 295 296 298 299 300 299 300 299 299 300 300 304 304 306 307 309 310 312 312 314 315 314 314 312 313 312 312 312 308
287 286 279 275 277 280 282 279 285 292 291 292 295 294 294 294 294 293 292 292 294 296 297 298 299 299 299 299 299 302 300 301 305 307 307 308 310 311 312 316 314 314 313 313 312 313 311 311 308
287 283 287 281 275 276 280 284 290 289 289 290 292 293 293 293 293 292 291 291 293 295 297 298 299 299 299 299 299 302 299 302 302 306 307 307 309 310 312 315 315 314 313 313 313 312 310 310 309
288 289 281 279 273 273 279 279 285 288 289 290 291 292 292 293 293 292 292 291 293 294 297 298 299 298 298 299 298 300 301 299 303 305 305 306 307 309 312 311 312 312 312 313 312 311 310 309 308
285 283 285 285 282 279 278 282 289 289 290 291 291 294 293 293 293 293 292 291 292 294 296 297 298 298 298 299 298 298 301 301 301 302 304 305 306 307 309 310 310 311 310 312 312 310 309 308 307
287 285 285 280 280 280 281 281 290 288 289 291 292 294 294 293 293 292 292 291 290 292 294 296 297 298 298 298 298 298 301 302 299 302 302 304 304 305 307 308 309 309 309 310 310 309 309 307 305
Wind_Speed
7 7 1 5 5 5 4 7 2 4 4 0 2 6 4 2 2 4 3 9 13 11 9 8 9 8 8 8 8 7 7 7 6 6 7 7 9 9 8 8 8 9 12 14 15 16 16 13 10
4 4 5 2 5 2 7 5 4 2 3 5 6 2 4 1 4 6 5 6 12 12 9 7 8 7 7 8 7 8 7 7 7 7 7 7 8 8 10 9 9 9 12 14 16 17 18 17 16
3 2 4 4 3 5 4 3 7 2 3 3 3 3 1 5 2 8 4 9 8 11 9 8 9 8 8 9 9 8 8 7 7 7 8 8 9 9 9 10 11 11 12 17 18 18 19 18 16
2 5 5 4 7 9 4 3 7 6 2 4 1 2 3 1 10 9 9 10 9 9 8 10 10 8 9 8 8 7 7 6 7 7 8 9 10 10 11 12 12 14 13 15 18 19 17 16 17
3 3 1 2 8 8 2 5 5 4 4 5 5 3 1 3 7 11 10 9 9 8 7 7 11 8 7 6 6 6 6 7 8 9 10 10 11 12 12 13 13 14 16 15 15 19 17 16 16
3 3 2 4 7 6 3 3 5 2 2 1 4 1 4 7 8 7 8 9 8 8 8 7 9 8 5 4 3 3 5 6 9 10 12 13 13 14 15 15 15 16 16 17 17 14 18 16 16
4 4 5 5 7 5 1 5 3 1 2 4 4 5 2 4 7 8 8 7 9 8 7 6 6 6 5 4 3 3 5 7 9 10 11 12 13 13 15 15 16 17 17 17 17 17 14 18 18
3 3 3 4 6 5 2 1 2 3 2 1 4 5 4 6 9 8 7 7 7 7 7 6 6 5 4 2 3 6 5 8 10 11 11 11 12 12 13 15 13 14 14 15 15 16 14 11 18
2 2 3 4 4 1 4 1 2 3 0 1 4 4 4 10 9 7 4 4 4 4 7 7 5 4 4 2 3 2 5 9 9 8 8 6 3 5 6 6 10 8 11 11 13 14 9 4 11
4 4 7 2 1 1 4 2 2 2 3 4 4 4 8 11 9 9 7 7 5 6 6 6 6 5 4 2 3 3 5 4 4 4 4 3 4 4 7 6 10 13 13 14 16 15 14 5 3
4 6 2 1 2 1 3 6 3 3 7 10 8 7 5 5 8 9 8 7 9 6 4 6 6 5 4 2 1 2 2 3 3 5 4 4 4 2 3 2 3 3 5 4 7 6 4 4 7
3 7 5 3 1 1 2 5 7 6 11 5 7 6 11 9 10 10 9 8 6 8 8 7 6 5 3 1 2 3 2 3 3 3 4 3 2 2 2 2 5 3 3 5 4 3 4 9 12
5 5 5 5 5 5 3 7 7 14 13 11 8 6 12 10 10 7 8 8 6 7 7 7 6 5 2 2 2 3 3 3 3 3 3 2 2 2 2 3 3 4 3 3 4 2 7 10 14
2 3 8 6 7 4 4 4 2 9 7 9 10 9 9 11 12 7 8 8 7 8 8 7 6 4 2 2 3 3 3 4 3 3 3 4 2 2 2 2 3 4 4 5 3 4 9 9 12
2 5 7 6 5 3 2 7 11 15 4 6 7 6 8 10 9 10 10 8 10 6 8 7 5 3 2 2 3 3 3 4 3 2 3 1 0 2 3 1 4 4 3 5 3 9 11 10 11
2 2 4 3 6 2 1 9 5 7 8 9 9 7 7 9 9 9 9 9 8 9 8 7 4 3 3 2 2 3 4 3 2 2 3 3 1 2 2 2 3 4 3 3 4 9 10 9 11
3 2 4 4 5 2 5 8 7 3 5 9 9 9 8 8 8 7 9 10 10 9 8 6 3 3 3 3 3 3 4 3 3 3 3 2 3 2 2 1 3 3 3 2 9 9 13 9 9
5 3 2 6 3 6 5 18 15 14 14 18 12 10 9 10 11 9 11 10 10 9 8 6 3 4 3 3 3 2 2 3 3 3 3 2 1 2 2 2 3 2 2 3 9 13 9 10 11
3 3 4 5 2 4 8 15 18 15 11 11 10 9 12 12 9 9 12 12 10 8 8 5 4 3 2 2 1 2 2 3 2 3 1 2 1 2 3 2 1 2 2 2 12 13 14 10 11
5 4 5 5 2 4 5 18 22 18 14 9 8 4 8 7 9 11 11 7 8 9 7 6 4 4 3 2 1 3 1 3 3 2 4 4 2 3 2 3 1 2 2 12 13 14 11 8 4
4 6 4 7 4 4 7 10 7 6 3 2 2 2 4 9 14 11 11 9 8 8 8 6 4 5 4 2 2 2 1 1 3 2 1 1 2 2 5 3 1 3 3 8 10 12 16 10 5
4 4 6 3 4 4 3 9 8 9 9 5 6 4 4 7 7 9 9 8 9 7 7 7 6 6 4 3 1 1 2 1 1 2 1 1 3 2 3 5 2 9 8 9 8 8 9 7 11
6 2 4 3 2 3 3 4 12 6 9 5 8 7 6 7 9 9 9 9 7 8 7 6 6 6 5 3 3 0 3 1 1 2 3 1 1 2 2 4 5 10 8 9 10 7 9 6 6
7 4 5 4 2 2 6 7 9 5 5 2 2 5 7 7 9 8 7 8 7 7 7 6 7 5 5 4 3 2 4 4 3 3 3 1 2 2 2 1 6 7 8 8 8 7 8 7 4
2 6 2 5 3 7 1 4 14 5 7 7 9 9 8 7 9 9 9 8 7 8 7 6 7 6 6 6 4 3 3 5 4 2 3 2 1 2 3 2 6 5 7 8 6 7 6 7 6
7 8 7 8 5 4 3 8 11 7 1 1 6 8 7 7 8 9 9 8 8 8 7 7 7 6 6 6 5 3 3 3 2 2 2 2 2 2 4 4 6 6 6 7 6 6 5 7 5
6 6 5 4 2 4 6 8 11 2 2 2 6 7 8 8 8 9 8 7 8 8 8 8 7 6 6 6 5 4 3 4 4 2 2 2 1 2 5 7 8 9 8 7 6 5 6 7 5
3 2 3 3 2 5 5 5 7 6 6 7 8 9 8 8 8 8 8 8 7 7 7 7 7 7 6 6 5 4 4 3 4 4 3 3 2 2 3 5 7 8 8 9 8 6 6 8 5
3 3 4 3 5 5 1 7 6 3 1 7 9 9 8 9 8 8 8 8 8 7 8 8 7 7 7 6 6 6 5 4 4 5 4 3 3 2 2 4 5 6 6 8 9 9 9 10 7
1 6 6 6 5 4 3 8 5 4 5 4 6 7 8 7 9 8 8 8 8 8 8 8 7 7 7 7 6 6 5 5 5 5 5 4 4 3 4 4 4 4 4 5 7 9 11 13 13
Wind_Direction
306 293 62 37 53 68 265 265 249 95 70 100 32 76 116 88 145 202 226 118 127 132 126 109 107 100 91 79 69 55 43 27 13 3 351 342 341 327 321 317 274 236 228 221 218 203 198 203 206
299 324 44 70 90 65 271 238 84 5 139 113 67 33 39 121 116 142 109 160 137 134 120 112 107 95 83 77 68 54 41 23 10 360 347 337 332 325 313 314 299 272 245 233 227 224 221 220 205
287 183 90 126 166 187 227 120 152 122 63 91 80 68 62 163 64 149 188 136 115 113 122 111 107 96 83 73 62 51 36 19 4 355 343 335 322 309 301 297 294 293 257 237 232 226 222 224 226
81 14 14 104 247 264 254 183 149 143 29 57 102 120 58 308 155 161 147 130 120 110 111 119 111 98 83 71 62 50 33 13 357 340 330 323 314 308 301 293 288 286 299 258 244 235 230 226 218
33 78 73 217 250 262 174 195 138 144 178 175 124 249 128 26 108 128 138 132 136 124 126 122 119 108 96 83 63 40 14 352 339 327 316 308 304 301 295 290 287 283 283 285 265 251 243 231 216
18 105 66 233 251 279 159 162 120 102 157 97 131 137 198 146 127 154 142 148 146 135 140 140 137 135 129 108 85 34 347 330 327 320 313 309 304 302 297 292 286 283 281 281 280 270 250 241 221
128 105 217 252 270 294 19 321 62 165 268 222 172 154 126 180 165 153 157 141 127 135 129 145 150 163 168 165 189 249 302 316 317 314 308 306 301 301 299 290 284 281 280 280 277 280 268 248 223
117 122 268 242 234 257 278 74 155 79 289 205 169 220 204 200 165 143 144 143 141 140 142 148 152 154 139 135 280 298 278 288 289 287 287 284 285 285 293 289 281 282 283 275 272 271 281 286 231
63 56 247 259 347 34 284 83 344 139 199 281 201 153 181 131 134 125 143 147 156 160 158 151 154 120 109 74 28 32 293 296 290 279 282 288 271 265 272 296 305 290 286 288 283 280 291 286 266
120 150 227 229 168 239 301 354 270 174 249 251 241 66 143 142 154 158 175 191 197 194 188 163 140 122 90 19 20 329 311 298 293 302 296 284 293 318 324 306 309 310 299 273 265 261 265 304 188
201 206 238 229 163 79 310 318 274 229 260 226 197 203 198 158 170 174 187 193 206 202 156 157 137 115 88 31 321 310 304 298 296 290 290 293 316 302 283 294 300 304 311 298 265 259 232 223 173
225 246 253 264 160 17 295 319 304 230 239 229 197 176 170 185 187 187 192 205 177 144 153 154 128 105 78 76 312 290 294 292 303 293 313 330 313 318 320 349 321 307 299 305 277 228 179 113 101
205 260 291 302 217 223 232 247 251 263 260 260 268 198 174 185 197 196 191 204 165 152 137 127 113 96 86 11 313 304 289 288 272 296 309 333 319 302 320 309 317 302 309 310 302 129 124 120 116
205 269 274 270 252 244 239 260 49 269 260 241 237 221 201 190 195 193 190 184 151 140 125 129 105 102 57 341 315 293 295 279 272 297 291 304 302 296 278 314 311 302 308 316 330 150 125 120 117
305 310 298 242 205 230 46 286 224 245 221 237 236 240 218 217 181 193 190 166 162 145 129 117 114 105 34 345 312 310 288 289 318 327 334 138 215 280 294 294 304 300 318 312 300 123 116 118 108
240 159 335 4 114 235 147 269 284 284 194 248 244 245 236 212 206 193 189 158 141 127 121 116 104 63 49 356 346 336 304 326 334 293 274 246 267 273 282 283 293 310 321 332 140 127 115 115 115
264 231 215 298 201 128 199 269 262 289 240 262 252 241 225 213 213 189 160 137 133 126 126 119 107 78 62 39 23 357 348 359 326 316 291 257 266 231 226 286 292 315 321 335 127 124 115 114 106
193 207 295 255 228 211 229 264 269 267 265 262 257 234 219 206 203 168 137 133 126 123 119 124 113 99 70 69 18 337 330 350 310 318 289 28 282 146 172 233 268 331 44 345 119 111 111 108 106
122 176 230 275 219 249 238 275 281 279 272 271 250 232 224 200 191 140 134 131 121 119 121 124 117 109 94 47 349 299 324 312 300 290 296 63 166 194 191 222 315 352 17 98 124 120 111 109 118
247 240 266 278 173 235 274 285 287 283 269 244 249 248 236 154 133 137 136 128 130 135 134 124 119 115 107 100 222 234 224 277 284 300 94 101 221 223 176 132 93 61 284 136 137 132 123 114 147
189 190 205 218 321 279 308 295 321 303 274 213 128 102 35 161 144 148 144 139 133 139 143 138 144 128 113 113 267 295 22 309 22 10 86 113 249 200 133 150 180 150 239 127 140 138 146 141 113
212 214 196 169 56 246 50 286 298 283 288 234 223 184 142 110 122 145 142 144 147 149 141 141 150 135 125 125 152 23 79 17 310 280 132 118 223 211 175 144 157 123 137 132 130 135 150 128 144
224 103 121 134 168 6 313 75 272 300 296 272 218 205 195 151 154 153 155 151 149 143 146 156 153 137 139 146 129 330 87 25 321 354 95 108 65 162 220 126 117 130 133 134 132 133 138 134 142
146 75 42 45 91 4 235 150 283 244 228 243 187 188 187 165 156 151 148 137 139 144 145 160 155 159 153 146 143 182 94 50 47 31 49 65 119 155 230 126 118 126 128 137 141 131 124 146 97
99 88 336 351 358 223 172 104 243 253 259 214 200 195 190 171 153 155 152 152 153 156 171 171 164 168 160 149 160 173 132 90 71 43 27 43 138 172 167 107 132 132 117 130 122 134 127 140 123
183 162 170 204 203 255 45 226 250 231 276 228 180 159 170 168 164 165 164 162 164 171 183 176 169 169 160 158 165 180 157 112 87 79 68 59 27 333 142 119 113 110 118 120 112 128 115 122 130
197 203 184 110 42 62 231 277 300 148 170 112 146 157 183 182 178 173 172 173 175 180 188 177 170 171 170 166 165 187 177 137 125 95 91 89 43 51 117 132 134 135 135 130 131 132 129 130 132
148 193 105 356 197 251 272 267 238 252 242 210 203 198 193 190 185 182 181 183 187 185 184 178 175 177 180 171 175 187 176 168 140 122 118 123 93 41 119 143 156 153 147 140 138 136 144 137 144
165 218 234 147 165 190 260 259 225 258 251 225 216 203 193 191 196 190 185 187 186 185 181 180 177 175 178 180 174 178 186 172 162 138 145 142 116 91 98 107 119 131 145 156 155 158 162 159 152
280 209 179 149 220 224 163 268 355 357 9 344 233 206 196 181 191 190 187 185 189 192 186 186 185 182 183 182 174 183 185 171 173 153 156 169 138 125 139 138 130 124 135 160 163 167 172 169 171